TimeAST,TemperatureF,Dew PointF,Humidity,Sea Level PressureIn,VisibilityMPH,Wind Direction,Wind SpeedMPH,Gust SpeedMPH,PrecipitationIn,Events,Conditions,WindDirDegrees,DateUTC
1:55 AM,82.4,77.0,84,29.83,-9999.0,ENE,15.0,-,N/A,,Unknown,70,2013-10-23 05:55:00
3:55 AM,82.4,77.0,84,29.80,6.2,East,11.5,-,N/A,,Scattered Clouds,80,2013-10-23 07:55:00
7:00 AM,82.4,78.8,89,29.83,-9999.0,East,9.2,-,N/A,,Unknown,90,2013-10-23 11:00:00
8:00 AM,84.2,78.8,84,29.86,-9999.0,East,13.8,-,N/A,,Unknown,90,2013-10-23 12:00:00
9:00 AM,86.0,78.8,79,29.86,6.2,East,13.8,-,N/A,,Scattered Clouds,90,2013-10-23 13:00:00
10:00 AM,87.8,78.8,75,29.89,6.2,ESE,12.7,-,N/A,,Mostly Cloudy,110,2013-10-23 14:00:00
11:00 AM,89.6,77.0,66,29.86,6.2,East,11.5,-,N/A,,Scattered Clouds,100,2013-10-23 15:00:00
12:00 PM,89.6,77.0,66,29.83,-9999.0,East,13.8,-,N/A,,Unknown,100,2013-10-23 16:00:00
12:55 PM,91.4,77.0,63,29.80,6.2,East,11.5,-,N/A,,Scattered Clouds,100,2013-10-23 16:55:00
2:00 PM,89.6,77.0,66,29.77,-9999.0,East,11.5,-,N/A,,Unknown,100,2013-10-23 18:00:00
2:55 PM,87.8,77.0,70,29.77,6.2,East,15.0,-,N/A,,Scattered Clouds,90,2013-10-23 18:55:00
4:00 PM,87.8,77.0,70,29.77,6.2,East,16.1,-,N/A,,Scattered Clouds,80,2013-10-23 20:00:00
4:55 PM,86.0,77.0,74,29.77,6.2,ENE,15.0,-,N/A,,Scattered Clouds,70,2013-10-23 20:55:00
5:00 PM,86.0,77.0,74,29.77,6.2,ENE,15.0,-,N/A,,Scattered Clouds,70,2013-10-23 21:00:00
6:00 PM,84.2,77.0,79,29.80,6.2,ENE,17.3,-,N/A,,Scattered Clouds,70,2013-10-23 22:00:00
6:55 PM,84.2,77.0,79,29.80,-9999.0,ENE,12.7,-,N/A,,Unknown,70,2013-10-23 22:55:00
8:00 PM,84.2,77.0,79,29.83,-9999.0,ENE,11.5,-,N/A,,Unknown,70,2013-10-24 00:00:00
9:00 PM,82.4,78.8,89,29.86,-9999.0,East,12.7,-,N/A,,Unknown,80,2013-10-24 01:00:00
10:00 PM,82.4,78.8,89,29.86,-9999.0,East,11.5,-,N/A,,Unknown,80,2013-10-24 02:00:00
11:00 PM,82.4,78.8,89,29.89,-9999.0,East,11.5,-,N/A,,Unknown,100,2013-10-24 03:00:00